Showing default

STARONE C4, 40733

Orbit data source: Space-Track

STARONE C4, 40733 is a payload satellite owned by Star One (BR) in GEO that was launched on Wed, 15 Jul 2015 UTC via an ARIANE 5ECA launch vehicle from the French Guiana (FRGUI). Payload-class satellites include a variety of spacecraft equipped with specific instruments for various scientific and technological missions. These include communications satellites like Starlink; space stations such as the ISS; scientific satellites like the Hubble; Earth observation satellites from companies like Planet Labs, Umbra, and HawkEye 360; GPS; miniature CubeSats for education and research; and military/defense satellites.

Loading next visibility...
Identifier
40733, 2015-034B
Orbit
GEO
Country
Flag of UnknownUnknown / BRAZ
Related business
Manufacturer
SS/Loral (MDA)
Mission
Operational Commercial Communications
Bus & Motor
LS-1300, R-4D
Mass
5,565 kg wet, ~3,500 kg dry
Launch date (UTC)
2015-07-15 (10 years ago)
Launch vehicle
ARIANE 5ECA
Launch site
French Guiana (FRGUI)
Object type
Payload
Rocket body
Debris
Shape & HBR
Box + 2 Pan, 13.1 m
Radar Cross Section
27.753 m², Large (>1 m²)

Expand to show TLE details & history
Last TLE update: 12 hours ago

TLE from 12 hours ago
0 STARONE C4
1 40733U 15034B   25259.42712465 -.00000284  00000-0  00000-0 0  9999
2 40733   0.0505 318.1187 0001736 253.5125 227.7521  1.00271408 37265
Epoch: 2025-09-16T10:15Z
TLE epoch observation values (Epoch: 2025-09-16T10:15:03.569Z)
Latitude
0.01501°
Longitude
-70.01335°
Altitude
35,791.088 km
Speed
3.074 km/s
True Right ascension
05h 17m 28s
True Declination
0° 00' 54"
Sunlit
Object was in daylight at epoch
Visualization orbit readout
Latitude
Unknown
Longitude
Unknown
Altitude
Unknown
Speed
Unknown
Apparent Right ascension
Unknown
Apparent Declination
Unknown
Sunlit
N/A
Visualization observer readout
Local Sidereal Time
14:42:41
Azimuth
Unknown
Elevation
Unknown
Doppler factor
Unknown
Orbital elements
Apogee altitude
35,795.091 km
Perigee altitude
35,780.451 km
Semi-major axis
42,165.908 km
Eccentricity
0.00017
Inclination
0.0505°
RAAN
318.1187°
Arg. of periapsis
253.5125°
True anomaly
227.73738°
Mean anomaly
227.7521°
Eccentric anomaly
227.74474°
Mean motion
0.25067 °/min
Orbital period
1,436.16 mins
BSTAR
0
Loading maneuver chart data...
Computing Atmospheric mass density...
Loading historical data...
Loading historical data...
Loading historical data...
Loading historical data...
Loading historical data...
Loading historical data...
Loading historical data...

Documentation

Showing up to 5 results
|